Wichita, KS

1:43 PM CDT on April 22, 2018 (GMT -0500)
Wichita Eisenhower National Airport

Weather History for KICT - December, 2013

Change the Weather History Date:

Tuesday, December 31, 2013

  Actual Average Record
Temperature  
Mean Temperature 37 °F 32 °F  
Max Temperature 53 °F 41 °F 70 °F (1951)
Min Temperature 20 °F 22 °F -5 °F (1968)
Degree Days  
Heating Degree Days 28 33  
Month to date heating degree days 1070 967  
Since 1 July heating degree days 1955 1843  
Cooling Degree Days 0 0  
Month to date cooling degree days 0 0  
Year to date cooling degree days 1778 1686  
Moisture  
Dew Point 23 °F    
Average Humidity 62    
Maximum Humidity 88    
Minimum Humidity 35    
Precipitation  
Precipitation 0.00 in 0.03 in 0.85 in (1984)
Month to date precipitation 0.60 1.20  
Year to date precipitation 40.45 32.64  
Snow  
Snow 0.00 in 0.10 in 3.80 in (1928)
Month to date snowfall 3.3 4.2  
Since 1 July snowfall 3.3 5.6  
Snow Depth 0.00 in    
Sea Level Pressure  
Sea Level Pressure 30.19 in    
Wind  
Wind Speed 13 mph (South)    
Max Wind Speed 28 mph    
Max Gust Speed 36 mph    
Visibility 10 miles    
Events      
T = Trace of Precipitation, MM = Missing Value Source: NWS Daily Summary

Daily Weather History Graph

Daily Weather History Graph

Search for Another Location

Airport or City:

Astronomy

Dec. 31, 2013 Rise Set
Actual Time 7:44 AM CST 5:21 PM CST
Civil Twilight 7:15 AM CST 5:50 PM CST
Nautical Twilight 6:42 AM CST 6:23 PM CST
Astronomical Twilight 6:10 AM CST 6:55 PM CST
Moon 6:39 AM CST (12/31) 4:57 PM CST (12/31)
Length of Visible Light 10h 35m
Length of Day
9h 36m
Waning Crescent, 1% of the Moon is Illuminated
Dec 31
Waning Crescent
Jan 1
New
Jan 7
First Quarter
Jan 15
Full
Jan 23
Last Quarter

Hourly Weather History & Observations

Time (CST) Temp. Windchill Dew Point Humidity Pressure Visibility Wind Dir Wind Speed Gust Speed Precip Events Conditions
12:53 AM 23.0 °F - 18.0 °F 81% 30.35 in 10.0 mi Calm Calm - N/A   Clear
1:53 AM 23.0 °F 15.8 °F 18.0 °F 81% 30.33 in 10.0 mi SE 5.8 mph - N/A   Clear
2:53 AM 21.9 °F 13.4 °F 18.0 °F 85% 30.33 in 10.0 mi SE 6.9 mph - N/A   Clear
3:53 AM 21.0 °F 11.4 °F 17.1 °F 85% 30.30 in 10.0 mi South 8.1 mph - N/A   Clear
4:53 AM 21.0 °F 13.4 °F 17.1 °F 85% 30.30 in 10.0 mi South 5.8 mph - N/A   Clear
5:53 AM 21.0 °F 12.4 °F 17.1 °F 85% 30.29 in 10.0 mi South 6.9 mph - N/A   Clear
6:53 AM 24.1 °F 14.4 °F 19.9 °F 84% 30.28 in 10.0 mi South 9.2 mph - N/A   Clear
7:53 AM 23.0 °F 13.9 °F 19.0 °F 85% 30.29 in 10.0 mi South 8.1 mph - N/A   Scattered Clouds
8:53 AM 30.0 °F 21.1 °F 25.0 °F 82% 30.29 in 10.0 mi South 10.4 mph - N/A   Mostly Cloudy
9:53 AM 39.0 °F 30.3 °F 26.1 °F 60% 30.29 in 10.0 mi SSW 16.1 mph - N/A   Mostly Cloudy
10:53 AM 45.0 °F 38.2 °F 26.1 °F 48% 30.27 in 10.0 mi SSW 15.0 mph - N/A   Mostly Cloudy
11:53 AM 50.0 °F - 25.0 °F 38% 30.23 in 10.0 mi SSW 17.3 mph 28.8 mph N/A   Scattered Clouds
12:53 PM 52.0 °F - 24.1 °F 34% 30.17 in 10.0 mi SSW 26.5 mph 32.2 mph N/A   Mostly Cloudy
1:53 PM 51.1 °F - 24.1 °F 35% 30.12 in 10.0 mi South 21.9 mph 28.8 mph N/A   Mostly Cloudy
2:53 PM 53.1 °F - 26.1 °F 35% 30.09 in - South 19.6 mph - N/A   Scattered Clouds
3:53 PM 52.0 °F - 26.1 °F 37% 30.08 in 10.0 mi South 19.6 mph 27.6 mph N/A   Scattered Clouds
4:53 PM 48.9 °F - 26.1 °F 41% 30.07 in 10.0 mi South 15.0 mph - N/A   Scattered Clouds
5:53 PM 39.9 °F 33.4 °F 26.1 °F 58% 30.09 in 10.0 mi South 10.4 mph - N/A   Partly Cloudy
6:53 PM 41.0 °F 33.1 °F 27.0 °F 57% 30.09 in 10.0 mi South 15.0 mph - N/A   Partly Cloudy
7:53 PM 41.0 °F 32.8 °F 27.0 °F 57% 30.10 in 10.0 mi South 16.1 mph - N/A   Partly Cloudy
8:53 PM 42.1 °F 34.9 °F 26.1 °F 53% 30.09 in 10.0 mi SSW 13.8 mph - N/A   Clear
9:53 PM 39.0 °F 32.3 °F 27.0 °F 62% 30.08 in 10.0 mi South 10.4 mph - N/A   Clear
10:53 PM 36.0 °F 28.5 °F 26.1 °F 67% 30.08 in 10.0 mi South 10.4 mph - N/A   Clear
11:53 PM 34.0 °F 25.0 °F 26.1 °F 73% 30.06 in 10.0 mi South 12.7 mph - N/A   Clear